Time,TemperatureF,DewpointF,PressureIn,WindDirection,WindDirectionDegrees,WindSpeedMPH,WindSpeedGustMPH,Humidity,HourlyPrecipIn,Conditions,Clouds,dailyrainin,SoftwareType,DateUTC
2013-12-06 00:42:00,37.0,27.0,29.90,North,11,2.0,-999.0,66,-99.99,,,-99.99,,2013-12-06 08:42:00,
2013-12-06 00:52:00,37.0,27.0,29.90,North,11,2.0,-999.0,66,-99.99,,,-99.99,,2013-12-06 08:52:00,
2013-12-06 01:02:00,37.0,27.0,29.90,North,11,2.0,-999.0,66,-99.99,,,-99.99,,2013-12-06 09:02:00,
2013-12-06 03:42:00,37.0,28.0,29.89,East,90,0.0,-999.0,69,-99.99,,,-99.99,,2013-12-06 11:42:00,
2013-12-06 06:42:00,37.0,28.0,29.88,NNE,15,1.0,-999.0,71,-99.99,,,-99.99,,2013-12-06 14:42:00,
2013-12-06 06:53:00,37.0,28.0,29.88,NNE,15,1.0,-999.0,71,-99.99,,,-99.99,,2013-12-06 14:53:00,
2013-12-06 07:02:00,37.0,28.0,29.88,NNE,15,1.0,-999.0,71,-99.99,,,-99.99,,2013-12-06 15:02:00,
2013-12-06 09:43:00,42.0,30.0,29.91,NNE,30,0.0,-999.0,62,-99.99,,,-99.99,,2013-12-06 17:43:00,
2013-12-06 09:52:00,42.0,30.0,29.91,NNE,30,0.0,-999.0,62,-99.99,,,-99.99,,2013-12-06 17:52:00,
2013-12-06 10:02:00,42.0,30.0,29.91,NNE,30,0.0,-999.0,62,-99.99,,,-99.99,,2013-12-06 18:02:00,
2013-12-06 12:42:00,50.0,26.0,29.90,South,171,1.0,-999.0,39,-99.99,,,-99.99,,2013-12-06 20:42:00,
2013-12-06 12:52:00,50.0,26.0,29.90,South,171,1.0,-999.0,39,-99.99,,,-99.99,,2013-12-06 20:52:00,
2013-12-06 13:02:00,50.0,26.0,29.90,South,171,1.0,-999.0,39,-99.99,,,-99.99,,2013-12-06 21:02:00,
2013-12-06 15:42:00,47.0,27.0,29.85,WSW,237,2.0,-999.0,46,-99.99,,,-99.99,,2013-12-06 23:42:00,
2013-12-06 15:52:00,47.0,27.0,29.85,WSW,237,2.0,-999.0,46,-99.99,,,-99.99,,2013-12-06 23:52:00,
2013-12-06 16:02:00,47.0,27.0,29.85,WSW,237,2.0,-999.0,46,-99.99,,,-99.99,,2013-12-07 00:02:00,
2013-12-06 18:42:00,44.0,37.0,29.80,NE,56,0.0,-999.0,77,-99.99,,,-99.99,,2013-12-07 02:42:00,
2013-12-06 18:52:00,44.0,37.0,29.80,NE,56,0.0,-999.0,77,-99.99,,,-99.99,,2013-12-07 02:52:00,
2013-12-06 19:02:00,44.0,37.0,29.80,NE,56,0.0,-999.0,77,-99.99,,,-99.99,,2013-12-07 03:02:00,
2013-12-06 21:43:00,43.0,40.0,29.74,East,100,0.0,-999.0,90,-99.99,,,-99.99,,2013-12-07 05:43:00,
2013-12-06 21:53:00,43.0,40.0,29.74,East,100,0.0,-999.0,90,-99.99,,,-99.99,,2013-12-07 05:53:00,
2013-12-06 22:02:00,43.0,40.0,29.74,East,100,0.0,-999.0,90,-99.99,,,-99.99,,2013-12-07 06:02:00,